www.pogodaiklimat.ru

Погода и климат >> Архив погоды >> Польша >> Эльблонг


ПОГОДА в Эльблонге

  • Прогноз погоды в Эльблонге
  • Монитор погоды в Эльблонге

АРХИВ ПОГОДЫ в Эльблонге

Время (UTC), дата Ветер
(напр.,м/с)
 
Видим.   Явления Облачность Т
(С)
Тd
(С)
f
(%)
Тe
(С)
Тes
(С)
Комфортность P
(гПа)
Po
(гПа)
Тmin
(С)
Tmax
(С)
R
(мм)
R24
(мм)
S
(см)
16 16.07 С 4 20 км 5/4 600 м
[Cu med, cong Ac trans]
+15.3 +9.9 70 +14 +16 1009.4 987.5
17 16.07 С 2 20 км 8/1 600 м
[Cu med, cong Ac und]
+14.5 +10.5 77 +14 +15 1009.4 987.5
18 16.07 С 2 20 км 9/8 600 м
[Cu med, cong Ac trans]
+14.4 +11.0 80 +14 +14 1009.4 987.5 +12.6 +16.3 0.4
19 16.07 Ю 1 20 км 8/6 600 м
[Cu med, cong Ac trans]
+13.3 +11.2 87 +13 +13 1009.4 987.4
20 16.07 Ю 2 20 км 9/9 600 м
[Cu med, cong]
+13.1 +11.0 87 +12 +12 1009.2 987.2
21 16.07 З 3 3500 м ливневой дождь 9/9 300 м
[Cb calv]
+12.3 +11.2 93 +11 +11 1009.5 987.4
22 16.07 ЮЗ 4 10 км слаб. ливневой дождь 9/9 300 м
[Cb calv]
+12.0 +11.1 94 +10 +10 1008.7 986.6
23 16.07 ЮЗ 4 15 км в посл. час ливневой дождь 9/6 300 м
[Cu med, cong Ac trans]
+11.7 +10.8 94 +9 +9 1008.5 986.4
00 17.07 ЮЗ 4 15 км {ливн. осадки} 9/9 600 м
[Cu med, cong]
+11.4 +10.6 95 +9 +9 1008.4 986.3 4
01 17.07 ЮЗ 4 10 км 9/9 600 м
[Sc]
+11.6 +10.8 95 +9 +9 1008.0 985.9
02 17.07 З 2 8000 м ливневой дождь 9/9 300 м
[Cb calv]
+12.1 +11.3 95 +11 +11 1008.0 985.9
03 17.07 ЮЗ 2 6000 м ливневой дождь 9/9 300 м
[Cb calv]
+12.0 +11.4 96 +11 +11 1008.0 985.9
04 17.07 З 2 3500 м ливневой дождь 9/9 300 м
[Cb calv]
+12.0 +11.4 96 +11 +11 1008.0 985.9
05 17.07 С 3 15 км слаб. ливневой дождь 9/9 300 м
[Cb calv]
+13.1 +11.2 88 +12 +12 1008.3 986.3
06 17.07 С 3 20 км в посл. час ливневой дождь 8/8 300 м
[Cb calv]
+13.4 +10.9 85 +12 +13 1008.8 986.8 +11.2 +14.4 9
07 17.07 С 4 15 км 8/8 300 м
[Cb calv]
+14.4 +10.8 79 +13 +14 1009.2 987.3
08 17.07 С 4-9
{9}
20 км 9/9 600 м
[Cu Sc]
+15.2 +9.5 69 +14 +15 1009.7 987.8
09 17.07 С 5-11
{11}
20 км 8/8 600 м
[Cu med, cong]
+15.3 +10.1 71 +14 +15 1010.4 988.5
10 17.07 СЗ 5-10
{11}
20 км 8/8 600 м
[Cu med, cong]
+15.5 +10.9 74 +14 +16 1010.9 989.0
11 17.07 СЗ 5-10
{11}
20 км 6/6 600 м
[Cu med, cong]
+15.7 +9.8 68 +15 +18 1011.3 989.4
12 17.07 С 5-10
{12}
20 км 6/6 600 м
[Cu med, cong]
+15.6 +10.6 72 +14 +17 1011.7 989.8
13 17.07 СЗ 6
{12}
20 км 8/8 600 м
[Cu med, cong]
+15.0 +10.4 74 +13 +14 1012.0 990.1
14 17.07 СЗ 6-11
{11}
20 км 9/9 600 м
[Cu med, cong]
+15.1 +10.3 73 +13 +14 1012.2 990.3
15 17.07 СЗ 5
{12}
20 км 9/9 600 м
[Cu med, cong]
+14.5 +10.3 76 +13 +13 1012.5 990.5
16 17.07 СЗ 4
{11}
20 км 9/9 600 м
[Cu med, cong]
+14.1 +10.5 79 +13 +13 1012.7 990.7
17 17.07 СЗ 4 20 км 9/9 600 м
[Cu med, cong]
+14.1 +10.5 79 +13 +13 1013.0 991.0
18 17.07 С 3
{12}
20 км 8/4 600 м
[Cu med, cong Ac trans]
+13.8 +10.4 80 +13 +13 1013.1 991.0 +13.4 +15.9
19 17.07 СЗ 2 20 км 5/4 600 м
[Cu med, cong Ac trans]
+13.1 +10.3 83 +12 +12 1013.2 991.1
20 17.07 СЗ 2 20 км 3/3 600 м
[Cu med, cong]
+12.5 +10.2 86 +12 +12 1013.2 991.0
21 17.07 СЗ 1 20 км 1/1 600 м
[Cu med, cong]
+12.2 +9.8 85 +12 +12 1013.2 991.0
22 17.07 СЗ 2 20 км 1/1 600 м
[Cu hum]
+12.6 +10.8 89 +12 +12 1013.3 991.1
23 17.07 СЗ 2 20 км 1/1 600 м
[Cu hum]
+12.5 +10.6 88 +12 +12 1013.2 991.0
00 18.07 С 2 20 км 5/5 600 м
[Sc]
+12.4 +10.8 90 +11 +11 1013.3 991.1
01 18.07 СЗ 2 20 км 5/5 600 м
[Sc]
+12.8 +11.2 90 +12 +12 1013.1 991.0
02 18.07 СЗ 2 20 км 9/9 600 м
[Sc]
+13.2 +11.4 89 +12 +12 1013.1 991.0
03 18.07 СЗ 2 20 км 8/8 600 м
[Sc]
+13.3 +11.5 89 +13 +13 1013.1 991.0
04 18.07 З 1 20 км 8/8 600 м
[Sc]
+13.2 +11.9 92 +13 +13 1013.3 991.2
05 18.07 СЗ 2 20 км 6/6 600 м
[Cu med, cong]
+14.5 +12.4 87 +14 +15 1013.4 991.4
06 18.07 С 3 20 км 9/9 600 м
[Cu med, cong]
+15.4 +12.3 82 +15 +15 1013.6 991.6 +12.1 +15.4
07 18.07 СЗ 3 20 км 8/8 600 м
[Cu med, cong]
+15.8 +11.8 77 +15 +17 1013.6 991.7
08 18.07 СЗ 2 20 км 8/8 600 м
[Cu med, cong]
+16.3 +12.1 76 +16 +19 1013.7 991.8
09 18.07 СЗ 3 20 км 8/8 600 м
[Cu med, cong]
+16.9 +11.2 69 +17 +19 1013.9 992.1
10 18.07 СЗ 2 20 км 6/6 600 м
[Cu med, cong]
+17.9 +11.5 66 +18 +25 1014.0 992.2
11 18.07 СЗ 3 20 км 5/5 600 м
[Cu med, cong]
+18.2 +11.0 63 +19 +25 1014.0 992.2
12 18.07 С 3 20 км 5/5 600 м
[Cu med, cong]
+18.6 +12.1 66 +19 +25 1013.9 992.2
13 18.07 С 3 20 км 3/3 600 м
[Cu med, cong]
+18.8 +11.8 64 +20 +27 1014.1 992.4
14 18.07 С 4 20 км 1/1 600 м
[Cu med, cong]
+18.3 +12.1 67 +18 +24 1014.0 992.3
15 18.07 С 3 20 км 1/1 600 м
[Cb calv]
+18.1 +12.5 70 +18 +23 1014.1 992.3
16 18.07 С 3 20 км 1/1 600 м
[Cb calv]
+17.7 +11.9 69 +18 +20 1013.9 992.1
17 18.07 С 3 20 км 1/1 600 м
[Cu med, cong]
+16.9 +12.2 74 +17 +18 1013.9 992.1
18 18.07 С 3 20 км 1/1 600 м
[Cu med, cong]
+15.8 +12.4 80 +15 +15 1014.0 992.1 +15.3 +18.9
19 18.07 СВ 2 20 км ясно +14.3 +12.3 88 +14 +14 1014.4 992.3
20 18.07 СВ 2 20 км ясно +13.3 +12.0 92 +13 +13 1014.5 992.4
21 18.07 СВ 1 15 км ясно +13.0 +12.1 94 +13 +13 1014.8 992.6
22 18.07 СВ 1 15 км ясно +13.1 +12.0 93 +13 +13 1014.8 992.6
23 18.07 В 1 15 км 1/0
[Ac trans]
+13.5 +12.2 92 +14 +14 1014.7 992.6
00 19.07 ЮВ 2 15 км 1/0
[Ac trans]
+13.7 +12.1 90 +13 +13 1014.6 992.5
01 19.07 ЮВ 2 15 км 1/0
[Ac trans]
+13.3 +12.2 93 +13 +13 1014.6 992.5
02 19.07 ЮВ 2 15 км 9/0
[Ac und]
+13.6 +12.3 92 +13 +13 1014.7 992.6
03 19.07 ЮВ 2 15 км 9/0
[Ac trans]
+13.8 +12.2 90 +13 +13 1014.6 992.5
04 19.07 В 1 15 км 9/9 600 м
[Sc]
+14.0 +12.4 90 +14 +14 1014.6 992.5
05 19.07 В 1 15 км 9/9 600 м
[Sc]
+14.5 +12.7 89 +15 +15 1014.5 992.5
06 19.07 ЮВ 2 10 км 8/8 600 м
[Sc]
+16.2 +12.7 80 +16 +17 1014.4 992.5 +13.0 +16.3
07 19.07 ЮВ 2 15 км 4/3 600 м
[Sc Ci fib]
+18.9 +14.4 75 +21 +26 комфорт 1014.2 992.5
08 19.07 В 2 20 км 4/1 600 м
[Sc Ci fib]
+19.7 +12.7 64 +22 +31 комфорт 1014.0 992.4
09 19.07 ЮВ 3 20 км 4/1 600 м
[Cu hum Ci fib]
+21.0 +11.6 55 +24 +33 комфорт 1013.8 992.3
10 19.07 В 2 20 км 4/1 600 м
[Cu med, cong Ci sp]
+22.0 +12.0 53 +24 +37 комфорт 1013.6 992.1
11 19.07 ЮЗ 2 20 км 5/4 1000 м
[Cu med, cong Ci sp]
+23.0 +11.1 47 +25 +34 комфорт 1013.3 991.9
12 19.07 Ю 2 20 км 8/6 1000 м
[Cu med, cong Ci sp]
+23.8 +10.5 43 +25 +30 комфорт 1012.9 991.6
13 19.07 З 1 20 км 8/5 1000 м
[Cu med, cong Ci sp]
+23.9 +10.9 44 +25 +31 комфорт 1012.7 991.4
14 19.07 С 3 20 км 8/3 1000 м
[Cu med, cong Cs]
+23.0 +14.3 58 +27 +31 душно 1012.8 991.4
15 19.07 С 3 20 км 8/1 1000 м
[Cu med, cong Cs]
+22.6 +13.9 58 +26 +30 жарко 1012.8 991.4
17 19.07 С 3 20 км 9/1 1000 м
[Cu med, cong Cs]
+21.3 +13.7 62 +24 +25 комфорт 1012.9 991.4
18 19.07 С 2 20 км 9/1 1000 м
[Cu med, cong Ac trans Cs]
+19.7 +13.8 69 +22 +22 комфорт 1013.0 991.4 +16.2 +24.5
19 19.07 СВ 2 20 км 8/0
[Ac trans Cs]
+18.8 +14.1 74 +20 +20 1013.3 991.6
20 19.07 СВ 2 20 км 8/0
[Ac trans Cs]
+17.9 +14.0 78 +18 +18 1013.7 991.9
21 19.07 СВ 2 20 км 8/0
[Ac trans Cs]
+17.2 +13.1 77 +18 +18 1013.8 992.0
22 19.07 СВ 1 20 км 6/0
[Cs]
+16.8 +12.5 76 +18 +18 1014.0 992.1
23 19.07 В 1 20 км 6/0
[Cs]
+17.2 +12.1 72 +18 +18 1013.9 992.1
00 20.07 В 1 20 км 6/0
[Ac trans Cs]
+17.1 +11.8 71 +18 +18 1013.9 992.1
01 20.07 ЮВ 1 20 км 4/0
[Ci fib]
+16.5 +11.6 73 +17 +17 1013.9 992.0
02 20.07 СЗ 2 20 км 4/0
[Ac trans Ci fib]
+15.3 +11.7 79 +15 +15 1014.2 992.2
03 20.07 СЗ 2 20 км 5/5 600 м
[Cu med, cong]
+17.0 +11.5 70 +17 +17 1014.1 992.3
04 20.07 С 1 20 км 4/4 600 м
[Cu med, cong]
+16.2 +12.2 77 +17 +17 1014.5 992.6
05 20.07 С 1 20 км 3/1 600 м
[Cu med, cong Ac trans]
+17.6 +13.5 77 +19 +21 1014.7 992.9
06 20.07 С 2 20 км 1/0
[Ac trans]
+18.8 +13.0 69 +20 +25 1015.0 993.3 +14.1 +19.8
07 20.07 С 2 20 км 1/0
[Ac trans]
+19.8 +13.0 65 +22 +29 комфорт 1015.2 993.5
08 20.07 СВ 2 20 км ясно +21.0 +13.2 61 +24 +35 комфорт 1015.4 993.8
09 20.07 СВ 2 20 км ясно +22.3 +12.3 53 +25 +38 комфорт 1015.7 994.2
10 20.07 СВ 2 20 км 1/0
[Ci fib]
+23.4 +12.7 51 +26 +41 жарко 1015.6 994.2
11 20.07 С 2 20 км 3/1 1000 м
[Cu hum Ci fib]
+23.9 +13.1 51 +26 +39 жарко 1015.8 994.4
12 20.07 С 3 20 км 3/1 1000 м
[Cu med, cong Ci fib]
+23.6 +11.0 45 +25 +35 комфорт 1015.9 994.5
13 20.07 С 3 20 км 5/1 1000 м
[Cu med, cong Ci fib]
+23.8 +13.6 53 +26 +34 жарко 1015.8 994.4
14 20.07 С 3 20 км 5/1 1000 м
[Cu med, cong Ci fib]
+23.7 +12.7 50 +26 +32 жарко 1015.8 994.4
15 20.07 СВ 3 20 км 5/1 1000 м
[Cu med, cong Ci sp]
+23.7 +13.0 51 +26 +30 жарко 1015.6 994.2
16 20.07 СВ 4 20 км 8/1 1000 м
[Cu med, cong Cs]
+22.7 +13.2 55 +26 +27 жарко 1015.6 994.1
17 20.07 С 3 20 км 8/0
[Cs]
+22.2 +11.9 52 +25 +25 комфорт 1015.3 993.8
18 20.07 СВ 2 20 км 6/0
[Cs]
+20.8 +14.9 69 +24 +25 комфорт 1015.3 993.7 +18.7 +24.1
19 20.07 СВ 1 20 км 6/0
[Cs]
+19.5 +14.5 73 +22 +22 комфорт 1015.6 993.9
20 20.07 В 2 20 км 8/0
[Cs]
+19.8 +13.9 69 +22 +22 комфорт 1015.9 994.2
21 20.07 В 2 20 км 9/0
[Cs]
+19.7 +14.1 70 +22 +22 комфорт 1015.9 994.2
22 20.07 В 2 20 км 9/0
[Cs]
+19.0 +14.3 74 +21 +21 комфорт 1015.7 994.0
23 20.07 ЮВ 2 20 км 9/0
[Cs]
+18.4 +14.3 77 +19 +19 1015.8 994.0
00 21.07 ЮВ 2 20 км 9/0
[Cs]
+17.7 +13.6 77 +18 +18 1015.1 993.3
01 21.07 ЮВ 3 20 км 9/0
[Ac trans Cs]
+18.4 +13.5 73 +19 +19 1014.8 993.0
02 21.07 Ю 3 20 км 8/0
[Cs]
+18.5 +13.1 71 +19 +19 1014.3 992.6
03 21.07 Ю 3 20 км 8/0
[Cs]
+18.7 +13.1 70 +20 +20 1014.1 992.4
04 21.07 Ю 3 15 км 9/0
[Ac trans Cs]
+19.5 +13.9 70 +21 +22 комфорт 1014.0 992.3
05 21.07 ЮВ 3 15 км 9/3 600 м
[Cu med, cong Ac trans Cs]
+19.8 +14.4 71 +22 +23 комфорт 1013.5 991.9
06 21.07 Ю 3 15 км 9/6 600 м
[Cb calv Ac trans Cs]
+20.5 +15.1 71 +24 +25 комфорт 1013.8 992.2 +17.6 +20.8
07 21.07 ЮЗ 3 10 км слаб. ливневой дождь 9/9 600 м
[Cb calv]
+18.9 +15.8 82 +20 +21 1014.0 992.3
08 21.07 Ю 4 10 км слаб. ливневой дождь 9/9 300 м
[Cb calv]
+17.9 +16.2 90 +18 +18 1014.4 992.6
09 21.07 Ю 3 15 км в посл. час ливневой дождь 9/4 600 м
[Cb calv Ac As]
+19.5 +16.7 84 +22 +25 комфорт 1014.6 992.9
10 21.07 Ю 4 20 км 9/3 600 м
[Cu med, cong Ac trans Ci sp]
+20.9 +17.1 79 +25 +29 комфорт 1014.8 993.2
11 21.07 ЮЗ 5 20 км 8/5 600 м
[Cu med, cong Ac trans Ci sp]
+23.5 +16.8 66 +27 +30 душно 1015.0 993.6
12 21.07 СЗ 5 20 км {ливн. осадки} 8/6 600 м
[Cb calv Ci sp]
+21.9 +16.6 72 +26 +29 душно 1015.9 994.4 2
13 21.07 СЗ 4
{9}
20 км 6/4 600 м
[Cb calv Ci sp]
+21.5 +17.5 78 +26 +30 душно 1016.2 994.6
14 21.07 С 4 20 км 8/1 1000 м
[Cb calv Cs]
+20.5 +15.9 75 +24 +28 комфорт 1016.3 994.7
15 21.07 С 3
{9}
20 км 9/1 1000 м
[Cu med, cong Cs]
+21.1 +15.6 71 +24 +28 комфорт 1016.6 995.0
16 21.07 С 2 20 км 9/1 1000 м
[Cu med, cong Cs]
+20.7 +16.3 76 +25 +27 комфорт 1016.6 995.0
17 21.07 С 4 20 км 9/3 1000 м
[Cb calv Ac trans Cs]
+19.4 +15.5 78 +21 +21 комфорт 1017.2 995.5
18 21.07 С 3
{9}
20 км 9/6 600 м
[Cb calv Cs]
+18.4 +15.8 85 +19 +19 1017.7 995.9 +17.8 +23.8 2
19 21.07 СВ 1 20 км 9/9 600 м
[Cb cap]
+17.8 +15.4 86 +19 +19 1018.4 996.5
20 21.07 С 1 20 км 6/5 600 м
[Cb cap Ac trans]
+17.2 +15.0 87 +18 +18 1018.7 996.8
21 21.07 ЮЗ 2 20 км 3/3 600 м
[Cu med, cong]
+15.3 +13.8 91 +15 +15 1018.8 996.7
22 21.07 ЮЗ 3 20 км 3/3 600 м
[Sc]
+15.1 +14.0 93 +14 +14 1019.5 997.4
23 21.07 З 3 20 км ясно +15.8 +13.8 88 +15 +15 1019.3 997.3
00 22.07 З 4 20 км ясно +15.0 +13.2 89 +14 +14 1019.3 997.2
01 22.07 З 4 20 км 1/1 600 м
[Sc]
+14.8 +13.2 90 +14 +14 1019.3 997.2
02 22.07 ЮЗ 4 15 км 4/1 600 м
[Cu med, cong Ac trans]
+14.1 +13.0 93 +13 +13 1019.5 997.3
03 22.07 ЮЗ 3 10 км 9/9 300 м
[Cu med, cong]
+14.3 +13.3 94 +13 +13 1019.6 997.4
04 22.07 ЮЗ 4 10 км 9/9 300 м
[Cu med, cong]
+14.2 +13.2 94 +13 +13 1019.8 997.6
05 22.07 З 3 10 км 5/5 300 м
[Cu med, cong]
+14.8 +13.5 92 +14 +15 1019.8 997.7
06 22.07 З 4 15 км 6/6 300 м
[Cu med, cong]
+16.4 +13.9 85 +16 +17 1020.0 998.0 +13.7 +18.4
07 22.07 З 4
{8}
20 км 8/8 600 м
[Cu med, cong]
+17.3 +12.4 73 +17 +18 1020.0 998.1
08 22.07 З 4-9
{9}
20 км 6/6 600 м
[Cu med, cong Ci fib]
+18.0 +12.4 70 +18 +21 1020.3 998.4
09 22.07 З 4
{9}
20 км 5/4 600 м
[Cu med, cong Ac trans Ci sp]
+18.9 +11.0 60 +20 +24 1020.4 998.6
10 22.07 З 5 20 км 8/4 600 м
[Cu med, cong Cs]
+19.4 +11.4 60 +20 +24 1020.5 998.7
11 22.07 СЗ 3 20 км 8/4 600 м
[Cu med, cong Cs]
+19.7 +12.2 62 +21 +28 комфорт 1020.6 998.8
12 22.07 СЗ 4
{9}
20 км 6/3 1000 м
[Cu med, cong Cs]
+20.2 +11.9 59 +22 +28 комфорт 1020.6 998.9
13 22.07 СЗ 4
{9}
20 км 8/3 1000 м
[Cu med, cong Cs]
+20.1 +12.3 61 +22 +27 комфорт 1020.7 998.9
14 22.07 С 4 20 км 9/3 1000 м
[Cu med, cong Cs]
+19.4 +13.1 67 +21 +24 комфорт 1020.7 998.9
15 22.07 С 4
{9}
20 км 9/1 600 м
[Cu med, cong Cs]
+18.2 +12.2 68 +18 +21 1020.8 998.9
16 22.07 С 3 20 км 9/1 600 м
[Cu med, cong Cs]
+18.7 +12.2 66 +20 +21 1020.5 998.6
17 22.07 С 2 20 км 9/1 600 м
[Sc Ac trans Cs]
+17.7 +12.6 72 +18 +19 1020.2 998.3
18 22.07 С 3
{9}
20 км 9/0
[Ac trans Cs]
+16.8 +12.9 78 +17 +17 1020.2 998.2 +16.4 +20.4
19 22.07 СЗ 2 20 км 9/0
[Ac trans Cs]
+16.2 +13.3 83 +16 +16 1020.3 998.3
20 22.07 СЗ 2 20 км 9/0
[Ac und Cs]
+16.1 +13.6 85 +16 +16 1020.3 998.3
21 22.07 З 2 20 км 9/0
[Ac und]
+15.8 +11.0 73 +16 +16 1020.3 998.2
22 22.07 З 2 20 км 9/0
[Ac trans]
+15.2 +11.4 78 +15 +15 1020.4 998.3
23 22.07 З 2 20 км 9/0
[Ac trans Ci sp]
+14.8 +11.6 81 +14 +14 1019.9 997.8
00 23.07 З 2 20 км 9/4 600 м
[Sc Ac trans Ci sp]
+13.8 +11.0 83 +13 +13 1020.1 997.9
01 23.07 З 2 20 км 9/6 600 м
[Sc Ac trans]
+13.9 +11.1 83 +13 +13 1020.0 997.8
02 23.07 З 2 20 км в посл. час ливневой дождь 9/6 600 м
[Cb calv Ac As]
+13.7 +11.7 88 +13 +13 1019.7 997.5
03 23.07 З 2 20 км {ливн. осадки} 9/4 600 м
[Cu med, cong Ac As]
+13.7 +12.1 90 +13 +13 1019.6 997.4
04 23.07 З 2 15 км слаб. ливневой дождь 9/5 300 м
[Cb calv Ac As]
+13.9 +12.3 90 +13 +13 1019.7 997.5
05 23.07 З 2 20 км в посл. час ливневой дождь 9/8 300 м
[Cb calv Ac As]
+14.6 +13.0 90 +14 +14 1019.6 997.5
06 23.07 З 2 15 км слаб. ливневой дождь 9/9 300 м
[Cb calv]
+14.6 +13.1 91 +14 +15 1019.6 997.5 +13.6 +16.8 0.4
07 23.07 З 2 20 км в посл. час ливневой дождь 9/5 300 м
[Cu med, cong Ac As]
+15.2 +13.4 89 +15 +17 1019.7 997.6
08 23.07 З 2 20 км 9/6 600 м
[Cu med, cong Ac As]
+16.0 +13.5 85 +16 +18 1019.7 997.7
09 23.07 З 1 20 км {ливн. осадки} 9/8 600 м
[Cu med, cong Ac As]
+17.2 +12.9 76 +18 +20 1019.9 997.9
10 23.07 З 3 20 км 9/8 600 м
[Cu med, cong Ac As]
+17.8 +12.9 73 +18 +20 1020.0 998.1
11 23.07 З 3 20 км 9/6 600 м
[Cu med, cong Ac As]
+18.2 +12.9 71 +19 +21 1020.0 998.1
12 23.07 З 2 20 км {ливн. осадки} 9/4 600 м
[Cu med, cong Ac As]
+18.5 +13.4 72 +20 +23 1019.8 997.9 0.1
13 23.07 СЗ 2 20 км 9/4 600 м
[Cu med, cong Ac As]
+18.5 +12.9 70 +20 +22 1019.5 997.7
14 23.07 СЗ 3 20 км 9/9 600 м
[Cu Sc]
+18.3 +13.4 73 +19 +20 1019.5 997.6

 

Местоположение метеостанции Эльблонг (Польша): широта 54.17 долгота 19.43 высота над уровнем моря 43 м.

В архиве по умолчанию представлена погода в Эльблонге за последнюю неделю. Архивные данные за месяц целиком и за предыдущие месяцы, начиная с января 2011 года, Вы можете получить, выбрав интересующий диапазон дат из раскрывающегося списка и нажав кнопку "Ввод!".


*Определитесь, кто Вы:
робот инопланетянин человек

Внимание! Время в таблицах - всемирное. Для получения местного времени необходимо прибавить поправку, которая равна 1 ч.

Смотрите также архив погоды в соседних городах и на ближайших метеорологических станциях:

Погода в Мамоново (Калининградская область, Россия) (47 км)
Погода в Балтийске (Калининградская область, Россия) (61 км)
Погода в Хеле (Польша) (62 км)
Погода на Авиабазе Гдыня-Оксывье (Польша) (74 км)
Погода в Ольштыне (Польша) (79 км)
Погода в Рыбном Порту (Калининградская область, Россия) (88 км)
Погода в Калининграде (Калининградская область, Россия) (97 км)
Погода в Пионерском (Калининградская область, Россия) (100 км)
Погода в Лебунии (Польша) (111 км)
Погода в Лемборке (Польша) (117 км)

Пояснения к столбцам:

Ветер - указаны скорость ветра в м/с - средняя за 10 мин, порывы в срок и между сроками (в фигурных скобках) и направление, откуда дует ветер: С - северный, СВ - северо-восточный, В - восточный, ЮВ - юго-восточный, Ю - южный, ЮЗ - юго-западный, З - западный, СЗ - северо-западный.
Видимость - горизонтальная дальность видимости в метрах или километрах. При видимости от 1 до 10 км при отсутствии осадков обычно наблюдается дымка, при ухудшении видимости до 1 км и менее - туман. В сухую погоду видимость может ухудшаться дымом, пылью или мглою.
Явления - указаны атмосферные явления, наблюдавшиеся в срок или в последний час перед сроком; фигурными скобками обозначены явления, наблюдавшиеся между сроками (за 1-3 часа до срока); квадратными скобками обозначены град или гололедные отложения с указанием их диаметра в мм.
Облачность - указаны через наклонную черту общая и нижняя облачность в баллах и высота нижней границы облаков в метрах; квадратными скобками обозначены формы облаков: Ci - перистые, Cs - перисто-слоистые, Cc - перисто-кучевые, Ac - высококучевые, As - высокослоистые, Sc - слоисто-кучевые, Ns - слоисто-дождевые, Cu - кучевые, Cb - кучево-дождевые. Подробнее классификацию облаков см. в Атласе облаков (PDF).
T - Температура воздуха - температура, измеренная на высоте 2 м над землей.
Td - Температура точки росы - температура, при понижении до которой содержащийся в воздухе водяной пар достигнет насыщения.
f - Относительная влажность воздуха - влажноcть воздуха, измеренная на высоте 2 м над землей.
Te - Эффективная температура - температура, которую ощущает одетый по сезону человек в тени. Характеристика душности погоды. При расчете учитывается влияние влажности воздуха и скорости ветра на теплоощущения человека.
Tes - Эффективная температура на солнце - температура, которую ощущает человек, с поправкой на солнечный нагрев. Характеристика знойности погоды. Зависит от высоты солнца над горизонтом, облачности и скорости ветра. Ночью, в пасмурную погоду, а также при ветре 12 м/с и более поправка равна нулю.
P - Атмосферное давление - приведенное к уровню моря атмосферное давление.
Po - Атмосферное давление - измеренное на уровне метеостанции атмосферное давление.
Tmin - Минимальная температура - минимум температуры воздуха на высоте 2 м над землей.
Tmax - Максимальная температура - максимум температуры воздуха на высоте 2 м над землей.
R - Количество осадков - Количество выпавших осадков за период времени, мм. При наведении курсора мыши на число - период времени, за который выпало указанное количество осадков.
R24 - Количество осадков - Количество выпавших осадков за 24 часа, мм.
S - Снежный покров - Высота снежного покрова, см. При наведении курсора мыши на число - состояние снежного покрова и степень покрытия местности в баллах.